World > North America > United States > Wisconsin > Mellen  

Mellen, WI Hourly Weather Updates

Feedback E-mail the Weather

Quick Clicks

Mellen, WI Weather Maps

°F °C°F °C
Mellen Weather Map
UTC Time: 5/23/2024, 15:11
Your Time:

Mellen, WI Regional Weather

Expires:202405231600;;724898
ASUS43 KMKX 231510
RWRWI 

WISCONSIN REGIONAL WEATHER ROUNDUP
NATIONAL WEATHER SERVICE MILWAUKEE/SULLIVAN WI
1000 AM CDT THU MAY 23 2024

NOTE: "FAIR" INDICATES FEW OR NO CLOUDS BELOW 12,000 FEET WITH NO
SIGNIFICANT WEATHER AND/OR OBSTRUCTIONS TO VISIBILITY.


WIZ003>005-009-010-017-018-231600-
NORTH CENTRAL WISCONSIN
  
CITY           SKY/WX    TMP DP  RH WIND       PRES   REMARKS
MANITOWISH WTR SUNNY     62  45  55 NW12G17   29.85F TC  17           
ARBOR VITAE    SUNNY     61  47  60 W10       29.85F TC  16           
WOODRUFF       SUNNY     61  47  60 W10       29.85F TC  16           
RHINELANDER    MOSUNNY   64  49  57 NW9       29.87S TC  18           
EAGLE RIVER    SUNNY     62  43  49 W13G20    29.85R TC  17           
LAND O LAKES   SUNNY     62  43  49 W12       29.85F TC  17           
PHILLIPS       MOSUNNY   62  50  65 S3        29.87R TC  17           
TOMAHAWK       MOSUNNY   65  47  52 W10       29.87S TC  18           
MEDFORD        CLOUDY    62  45  55 W6        29.88S TC  17           
MERRILL        PTSUNNY   62  50  65 W5        29.86S TC  17           
$$
 

SKY/WX - Weather  TMP - Temperature  DP - Dew Point  RH - Humidity
WIND - Wind Direction/Speed PRES - Barometric Pressure VSB - Visibility
WCI - Wind Chill Index E13G22 Wind - East Wind 13 mph/Gusts of 22 mph

Trending Headlines

Trending Entertainment Headlines

Mellen Radar Loop

Use the map search tool if you want to place a location marker on the radar map...

Mellen Quick Facts

National Two Day Weather Forecast


E-mail the Mellen Weather Forecast

Voice your opinion or tell us about page issues...